| time (UTC) | temp F | wind direction | speed MPH | gust MPH | rain 1hr in | rain 24hr in | rain mn in | humidity % | barometer mb |
| 20260505034040 | 40 | 185 | 9.0 | 15.0 | 0.00 | 0.17 | 0.00 | 97 | 999.8 |
| 20260505033038 | 40 | 186 | 9.0 | 15.0 | 0.00 | 0.17 | 0.00 | 98 | 999.8 |
| 20260505032037 | 40 | 177 | 8.0 | 15.0 | 0.00 | 0.17 | 0.00 | 98 | 999.9 |
| 20260505031036 | 40 | 171 | 8.0 | 14.0 | 0.00 | 0.17 | 0.00 | 98 | 999.9 |
| 20260505030035 | 40 | 171 | 8.0 | 14.0 | 0.00 | 0.17 | 0.00 | 98 | 1000.1 |
| 20260505025114 | 40 | 164 | 8.0 | 13.0 | 0.00 | 0.17 | 0.00 | 97 | 1000.2 |
| 20260505024033 | 40 | 174 | 7.0 | 13.0 | 0.00 | 0.17 | 0.00 | 97 | 1000.2 |
| 20260505023033 | 40 | 163 | 7.0 | 12.0 | 0.00 | 0.17 | 0.00 | 97 | 1000.2 |
| 20260505022032 | 40 | 149 | 6.0 | 12.0 | 0.00 | 0.17 | 0.00 | 97 | 1000.3 |
| 20260505021031 | 40 | 151 | 6.0 | 9.0 | 0.00 | 0.17 | 0.00 | 97 | 1000.3 |
| 20260505020030 | 40 | 155 | 5.0 | 9.0 | 0.00 | 0.17 | 0.00 | 97 | 1000.5 |
| 20260505015028 | 41 | 163 | 5.0 | 9.0 | 0.00 | 0.17 | 0.00 | 97 | 1000.6 |
| 20260505014027 | 41 | 170 | 6.0 | 10.0 | 0.00 | 0.17 | 0.00 | 96 | 1000.8 |
| 20260505013027 | 41 | 189 | 6.0 | 10.0 | 0.00 | 0.17 | 0.00 | 96 | 1001.0 |
| 20260505012026 | 42 | 210 | 8.0 | 12.0 | 0.00 | 0.17 | 0.00 | 94 | 1001.2 |
| 20260505011025 | 42 | 213 | 8.0 | 13.0 | 0.00 | 0.17 | 0.00 | 94 | 1001.4 |
| 20260505010024 | 42 | 219 | 8.0 | 13.0 | 0.00 | 0.17 | 0.00 | 95 | 1001.3 |
| 20260505005042 | 42 | 229 | 7.0 | 11.0 | 0.00 | 0.17 | 0.00 | 95 | 1001.3 |
| 20260505004023 | 42 | 229 | 7.0 | 10.0 | 0.00 | 0.17 | 0.00 | 94 | 1001.4 |
| 20260505003021 | 42 | 232 | 7.0 | 11.0 | 0.00 | 0.17 | 0.00 | 95 | 1001.4 |
| 20260505002020 | 43 | 219 | 7.0 | 11.0 | 0.00 | 0.17 | 0.00 | 94 | 1001.2 |
| 20260505001019 | 43 | 216 | 7.0 | 10.0 | 0.00 | 0.17 | 0.00 | 95 | 1001.2 |
| 20260505000017 | 43 | 224 | 7.0 | 11.0 | 0.00 | 0.17 | 0.00 | 94 | 1001.2 |
| 20260504235056 | 43 | 226 | 8.0 | 11.0 | 0.00 | 0.17 | 0.17 | 94 | 1001.3 |
| 20260504234017 | 43 | 240 | 7.0 | 11.0 | 0.00 | 0.17 | 0.17 | 94 | 1001.4 |
| 20260504233046 | 43 | 246 | 8.0 | 13.0 | 0.00 | 0.17 | 0.17 | 95 | 1001.5 |
| 20260504232045 | 43 | 244 | 8.0 | 13.0 | 0.00 | 0.17 | 0.17 | 95 | 1001.5 |
| 20260504231043 | 43 | 237 | 6.0 | 10.0 | 0.00 | 0.17 | 0.17 | 95 | 1001.5 |
| 20260504230042 | 43 | 230 | 7.0 | 10.0 | 0.00 | 0.17 | 0.17 | 95 | 1001.4 |
| 20260504225041 | 43 | 236 | 9.0 | 13.0 | 0.00 | 0.17 | 0.17 | 95 | 1001.4 |
| 20260504224040 | 44 | 236 | 8.0 | 13.0 | 0.00 | 0.17 | 0.17 | 95 | 1001.4 |
| 20260504223039 | 44 | 242 | 9.0 | 14.0 | 0.00 | 0.17 | 0.17 | 95 | 1001.4 |
| 20260504222038 | 44 | 228 | 9.0 | 14.0 | 0.01 | 0.17 | 0.17 | 95 | 1001.5 |
| 20260504221039 | 44 | 218 | 10.0 | 14.0 | 0.03 | 0.17 | 0.17 | 95 | 1001.5 |
| 20260504220038 | 44 | 222 | 9.0 | 14.0 | 0.04 | 0.17 | 0.17 | 95 | 1001.4 |
| 20260504215036 | 44 | 229 | 8.0 | 12.0 | 0.04 | 0.17 | 0.17 | 95 | 1001.4 |
| 20260504214035 | 44 | 223 | 8.0 | 13.0 | 0.04 | 0.17 | 0.17 | 95 | 1001.5 |
| 20260504213034 | 45 | 225 | 7.0 | 13.0 | 0.04 | 0.17 | 0.17 | 95 | 1001.4 |
| 20260504212032 | 45 | 234 | 8.0 | 15.0 | 0.04 | 0.16 | 0.16 | 95 | 1001.6 |
| 20260504211031 | 45 | 230 | 10.0 | 15.0 | 0.02 | 0.14 | 0.14 | 92 | 1001.7 |
| 20260504210032 | 45 | 233 | 10.0 | 15.0 | 0.00 | 0.13 | 0.13 | 90 | 1001.7 |
| 20260504205031 | 45 | 221 | 10.0 | 14.0 | 0.00 | 0.13 | 0.13 | 89 | 1001.6 |
| 20260504204030 | 46 | 232 | 8.0 | 14.0 | 0.00 | 0.13 | 0.13 | 88 | 1001.7 |
| 20260504203029 | 46 | 228 | 9.0 | 14.0 | 0.00 | 0.13 | 0.13 | 87 | 1001.6 |
| 20260504202027 | 46 | 239 | 9.0 | 13.0 | 0.00 | 0.13 | 0.13 | 87 | 1001.7 |
| 20260504201026 | 46 | 235 | 10.0 | 16.0 | 0.00 | 0.13 | 0.13 | 87 | 1001.8 |
| 20260504200025 | 46 | 235 | 9.0 | 16.0 | 0.00 | 0.13 | 0.13 | 86 | 1001.7 |
| 20260504195024 | 46 | 241 | 9.0 | 15.0 | 0.00 | 0.13 | 0.13 | 86 | 1001.7 |
| 20260504194025 | 46 | 238 | 10.0 | 20.0 | 0.00 | 0.13 | 0.13 | 85 | 1001.6 |
| 20260504193023 | 46 | 229 | 11.0 | 20.0 | 0.00 | 0.13 | 0.13 | 85 | 1001.6 |
| 20260504192022 | 46 | 235 | 9.0 | 13.0 | 0.00 | 0.13 | 0.13 | 86 | 1001.6 |
| 20260504191021 | 46 | 237 | 11.0 | 16.0 | 0.00 | 0.13 | 0.13 | 84 | 1001.6 |
| 20260504190020 | 47 | 237 | 11.0 | 16.0 | 0.00 | 0.13 | 0.13 | 84 | 1001.6 |
| 20260504185019 | 47 | 237 | 10.0 | 16.0 | 0.00 | 0.13 | 0.13 | 82 | 1001.5 |
| 20260504184018 | 48 | 237 | 10.0 | 18.0 | 0.00 | 0.13 | 0.13 | 81 | 1001.5 |
| 20260504183016 | 48 | 236 | 12.0 | 19.0 | 0.00 | 0.13 | 0.13 | 80 | 1001.5 |
| 20260504182047 | 49 | 240 | 12.0 | 20.0 | 0.00 | 0.13 | 0.13 | 79 | 1001.4 |
| 20260504181046 | 49 | 235 | 10.0 | 17.0 | 0.00 | 0.13 | 0.13 | 79 | 1001.3 |
| 20260504180045 | 49 | 233 | 10.0 | 17.0 | 0.00 | 0.13 | 0.13 | 78 | 1001.2 |
| 20260504175044 | 50 | 237 | 11.0 | 20.0 | 0.00 | 0.13 | 0.13 | 77 | 1001.2 |
| 20260504174043 | 50 | 236 | 10.0 | 17.0 | 0.00 | 0.13 | 0.13 | 77 | 1001.1 |
| 20260504173102 | 50 | 236 | 11.0 | 17.0 | 0.00 | 0.13 | 0.13 | 76 | 1001.1 |
| 20260504172040 | 50 | 239 | 11.0 | 19.0 | 0.00 | 0.13 | 0.13 | 75 | 1001.1 |
| 20260504171039 | 50 | 243 | 12.0 | 17.0 | 0.00 | 0.13 | 0.13 | 74 | 1001.0 |
| 20260504151030 | 52 | 224 | 9.0 | 14.0 | 0.00 | 0.13 | 0.13 | 74 | 1000.8 |
| 20260504141024 | 52 | 253 | 9.0 | 14.0 | 0.00 | 0.13 | 0.13 | 69 | 1000.9 |
| 20260504081019 | 52 | 260 | 7.0 | 11.0 | 0.00 | 0.00 | 0.00 | 49 | 1003.6 |
| 20260504045030 | 47 | 294 | 1.0 | 3.0 | 0.00 | 0.00 | 0.00 | 57 | 1004.7 |
| 20260504044029 | 45 | 317 | 3.0 | 4.0 | 0.00 | 0.00 | 0.00 | 60 | 1004.7 |
| 20260504043027 | 46 | 312 | 1.0 | 3.0 | 0.00 | 0.00 | 0.00 | 57 | 1004.8 |
| 20260504042029 | 45 | 288 | 1.0 | 2.0 | 0.00 | 0.00 | 0.00 | 57 | 1004.9 |
| 20260504041027 | 45 | 324 | 2.0 | 2.0 | 0.00 | 0.00 | 0.00 | 58 | 1005.0 |
| 20260504040026 | 44 | 306 | 2.0 | 2.0 | 0.00 | 0.00 | 0.00 | 58 | 1005.0 |
| 20260504035025 | 44 | 316 | 2.0 | 3.0 | 0.00 | 0.00 | 0.00 | 59 | 1005.1 |